[Date Prev][Date Next][Thread Prev][Thread Next] - [Date Index][Thread Index][Author Index]
2 Line ISS Keps 12-16
- Subject: [sarex] 2 Line ISS Keps 12-16
- From: "Dave Larsen Ph.D." <doc@xxxxxxxxxxx>
- Date: Mon, 16 Dec 2002 04:43:12 -0800
ISS
1 25544U 98067A 02350.33593750 .00030465 00000-0 40975-3 0 4794
2 25544 51.6344 218.5794 0003341 283.1264 55.9041 15.57602205232372
----
Via the sarex mailing list at AMSAT.ORG courtesy of AMSAT-NA.
To unsubscribe, send "unsubscribe sarex" to Majordomo@amsat.org
AMSAT Home